Location: Neuvy Saint Sepulchre
(46.5953°N, 1.8122°E)
Time: 00:55:31
(UTC+01:00)

Tiangong - Visible Passes

Search period start: 05 March 2024 00:00
Search period end: 15 March 2024 00:00
Orbit: 374 x 383 km, 41.5° (Epoch: 04 March)

Date Brightness Start Highest point End Pass type
(mag) Time Alt. Az. Time Alt. Az. Time Alt. Az.
05 Mar -0.9 19:30:23 10° WSW 19:33:12 31° S 19:35:41 12° ESE visible
05 Mar 0.7 21:07:01 10° WSW 21:07:47 14° WSW 21:07:47 14° WSW visible
06 Mar -0.6 20:05:21 10° WSW 20:08:01 26° S 20:09:10 21° SSE visible
07 Mar 0.2 20:40:38 10° WSW 20:42:37 16° SSW 20:42:37 16° SSW visible
08 Mar -0.2 19:38:39 10° WSW 19:41:08 22° SSW 19:43:37 10° SE visible
09 Mar 0.6 20:14:20 10° SW 20:15:34 12° SSW 20:16:48 10° S visible
